Location: Brompton
(51.4000°N, 0.5333°E)
Time: 16:50:26
(UTC+00:00)

Cosmos 1812 - Pass Details

Date: 11 May 2021
Orbit: 514 x 521 km, 82.5° (Epoch: 21 June)

Event Time Altitude Azimuth Distance (km) Brightness Sun altitude
Exits shadow 20:46:59 10° 163° (SSE) 1,764 4.9 -9.4°
Reaches altitude 10° 20:47:01 10° 163° (SSE) 1,756 4.8 -9.4°
Maximum altitude 20:50:37 39° 93° (E) 791 3.3 -9.8°
Drops below altitude 10° 20:54:16 10° 24° (NNE) 1,771 5.7 -10.2°
Sets 20:56:29 0° 17° (NNE) 2,665 6.8 -10.4°
